Dutch Harbor, AK

3:13 PM AKST on February 08, 2016 (GMT -0900)
Unalaska

Weather History for PADU - September, 2013

Change the Weather History Date:

Thursday, September 19, 2013

  Actual Average Record
Temperature  
Mean Temperature 49 °F -  
Max Temperature 53 °F 53 °F 63 °F (1986)
Min Temperature 46 °F 40 °F 32 °F (1990)
Degree Days  
Heating Degree Days 16    
Moisture  
Dew Point 42 °F    
Average Humidity 75    
Maximum Humidity 86    
Minimum Humidity 69    
Precipitation  
Precipitation 0.00 in - - ()
Sea Level Pressure  
Sea Level Pressure 30.00 in    
Wind  
Wind Speed 8 mph (SSW)    
Max Wind Speed 20 mph    
Max Gust Speed 24 mph    
Visibility 10 miles    
Events      
Averages and records for this station are not official NWS values.
T = Trace of Precipitation, MM = Missing Value Source: NWS Daily Summary

Daily Weather History Graph

Daily Weather History Graph

Search for Another Location

Airport or City:

Trip Planner

Search our weather history database for the weather conditions in past years. The results will help you decide how hot, cold, wet, or windy it might be!

Date:

Astronomy

Sep. 19, 2013 Rise Set
Actual Time 8:47 AM AKDT 9:10 PM AKDT
Civil Twilight 8:12 AM AKDT 9:46 PM AKDT
Nautical Twilight 7:29 AM AKDT 10:28 PM AKDT
Astronomical Twilight 6:45 AM AKDT 11:12 PM AKDT
Moon 9:02 PM AKDT (9/19) 9:20 AM AKDT (9/19)
Length of Visible Light 13h 34m
Length of Day
12h 23m
Full, 100% of the Moon is Illuminated
Sep 19
Full
Sep 26
Last Quarter
Oct 4
New
Oct 11
First Quarter
Oct 18
Full

Hourly Weather History & Observations

Time (AKDT) Temp. Dew Point Humidity Pressure Visibility Wind Dir Wind Speed Gust Speed Precip Events Conditions
12:56 AM 50.0 °F 43.0 °F 77% 30.01 in 10.0 mi SW 15.0 mph 23.0 mph N/A   Scattered Clouds
1:56 AM 50.0 °F 42.1 °F 74% 30.00 in 10.0 mi SSW 19.6 mph 24.2 mph N/A   Clear
2:56 AM 48.9 °F 42.1 °F 77% 30.02 in 10.0 mi SW 10.4 mph - N/A   Clear
3:56 AM 48.0 °F 41.0 °F 77% 30.02 in 10.0 mi Calm Calm - N/A   Clear
4:56 AM 46.9 °F 39.9 °F 77% 30.01 in 10.0 mi Calm Calm - N/A   Clear
5:56 AM 46.9 °F 39.9 °F 77% 30.01 in 10.0 mi Calm Calm - N/A   Partly Cloudy
6:56 AM 46.0 °F 39.9 °F 79% 30.02 in 10.0 mi Calm Calm - N/A   Partly Cloudy
7:56 AM 46.9 °F 41.0 °F 80% 30.02 in 10.0 mi West 3.5 mph - N/A   Mostly Cloudy
8:56 AM 46.9 °F 41.0 °F 80% 30.03 in 10.0 mi Calm Calm - N/A   Mostly Cloudy
9:56 AM 46.9 °F 41.0 °F 80% 30.04 in 10.0 mi Calm Calm - N/A   Mostly Cloudy
10:56 AM 50.0 °F 43.0 °F 77% 30.04 in 10.0 mi South 4.6 mph - N/A   Mostly Cloudy
11:56 AM 51.1 °F 42.1 °F 71% 30.04 in 10.0 mi SW 6.9 mph - N/A   Mostly Cloudy
12:56 PM 52.0 °F 42.1 °F 69% 30.04 in 10.0 mi WSW 4.6 mph - N/A   Mostly Cloudy
1:56 PM 52.0 °F 42.1 °F 69% 30.03 in 10.0 mi WSW 5.8 mph - N/A   Mostly Cloudy
2:32 PM 51.8 °F 42.8 °F 71% 30.01 in 10.0 mi WSW 6.9 mph - N/A   Scattered Clouds
2:56 PM 52.0 °F 42.1 °F 69% 30.02 in 10.0 mi SSW 8.1 mph - N/A   Scattered Clouds
3:56 PM 52.0 °F 42.1 °F 69% 30.01 in 10.0 mi SSW 10.4 mph - N/A   Scattered Clouds
4:56 PM 52.0 °F 42.1 °F 69% 29.99 in 10.0 mi SSW 11.5 mph - N/A   Mostly Cloudy
5:56 PM 52.0 °F 43.0 °F 71% 29.97 in 10.0 mi SSW 8.1 mph - N/A   Clear
6:56 PM 52.0 °F 43.0 °F 71% 29.95 in 10.0 mi Variable 4.6 mph - N/A   Overcast
7:56 PM 50.0 °F 42.1 °F 74% 29.95 in 10.0 mi East 6.9 mph - N/A   Overcast
8:56 PM 48.9 °F 42.1 °F 77% 29.94 in 10.0 mi East 6.9 mph - N/A   Scattered Clouds
9:56 PM 48.0 °F 43.0 °F 83% 29.93 in 10.0 mi East 8.1 mph - 0.00 in   Overcast
10:56 PM 48.0 °F 43.0 °F 83% 29.90 in 10.0 mi NE 3.5 mph - N/A   Overcast
11:56 PM 48.0 °F 44.1 °F 86% 29.88 in 10.0 mi Calm Calm - N/A   Overcast